| time (UTC) | temp C | wind direction | speed KPH | gust KPH | rain 1hr cm | rain 24hr cm | rain mn cm | humidity % | barometer mb |
| 20260507040014 | 15 | 106 | 0.0 | 3.2 | 0.00 | 0.00 | 0.00 | 81 | 1016.9 |
| 20260507034534 | 15 | 106 | 0.0 | 4.8 | 0.00 | 0.00 | 0.00 | 81 | 1016.6 |
| 20260507033033 | 15 | 107 | 1.6 | 4.8 | 0.00 | 0.00 | 0.00 | 80 | 1016.4 |
| 20260507031513 | 15 | 118 | 0.0 | 4.8 | 0.00 | 0.00 | 0.00 | 78 | 1016.3 |
| 20260507030019 | 16 | 147 | 0.0 | 3.2 | 0.00 | 0.00 | 0.00 | 77 | 1016.1 |
| 20260507024545 | 16 | 146 | 1.6 | 4.8 | 0.00 | 0.00 | 0.00 | 76 | 1016.0 |
| 20260507023028 | 17 | 144 | 3.2 | 6.4 | 0.00 | 0.00 | 0.00 | 74 | 1015.8 |
| 20260507021544 | 17 | 145 | 3.2 | 6.4 | 0.00 | 0.00 | 0.00 | 72 | 1015.7 |
| 20260507020024 | 18 | 160 | 4.8 | 8.0 | 0.00 | 0.00 | 0.00 | 70 | 1015.5 |
| 20260507014534 | 18 | 143 | 3.2 | 8.0 | 0.00 | 0.00 | 0.00 | 68 | 1015.5 |
| 20260507013030 | 18 | 144 | 4.8 | 9.7 | 0.00 | 0.00 | 0.00 | 67 | 1015.6 |
| 20260507011559 | 18 | 191 | 4.8 | 9.7 | 0.00 | 0.00 | 0.00 | 65 | 1015.6 |
| 20260507010114 | 19 | 185 | 6.4 | 9.7 | 0.00 | 0.00 | 0.00 | 65 | 1015.8 |
| 20260507004518 | 19 | 206 | 4.8 | 11.3 | 0.00 | 0.00 | 0.00 | 64 | 1015.7 |
| 20260507003026 | 19 | 168 | 6.4 | 14.5 | 0.00 | 0.00 | 0.00 | 63 | 1015.6 |
| 20260507001528 | 19 | 161 | 8.0 | 12.9 | 0.00 | 0.00 | 0.00 | 63 | 1015.6 |
| 20260507000014 | 20 | 149 | 9.7 | 17.7 | 0.00 | 0.00 | 0.00 | 63 | 1015.7 |
| 20260506234526 | 20 | 147 | 8.0 | 16.1 | 0.00 | 0.00 | 0.00 | 63 | 1015.5 |
| 20260506233011 | 20 | 110 | 6.4 | 12.9 | 0.00 | 0.00 | 0.00 | 64 | 1015.6 |
| 20260506231522 | 20 | 143 | 11.3 | 19.3 | 0.00 | 0.00 | 0.00 | 62 | 1015.8 |
| 20260506230028 | 21 | 131 | 11.3 | 19.3 | 0.00 | 0.00 | 0.00 | 60 | 1015.7 |
| 20260506224526 | 21 | 127 | 6.4 | 16.1 | 0.00 | 0.00 | 0.00 | 60 | 1015.8 |
| 20260506223029 | 21 | 189 | 8.0 | 16.1 | 0.00 | 0.00 | 0.00 | 60 | 1016.2 |
| 20260506221518 | 21 | 177 | 11.3 | 19.3 | 0.00 | 0.00 | 0.00 | 59 | 1016.4 |
| 20260506220024 | 21 | 164 | 8.0 | 19.3 | 0.00 | 0.00 | 0.00 | 59 | 1016.4 |
| 20260506214532 | 21 | 149 | 9.7 | 17.7 | 0.00 | 0.00 | 0.00 | 59 | 1016.8 |
| 20260506213020 | 21 | 110 | 4.8 | 12.9 | 0.00 | 0.00 | 0.00 | 61 | 1016.9 |
| 20260506211528 | 20 | 233 | 3.2 | 24.1 | 0.00 | 0.00 | 0.00 | 64 | 1017.1 |
| 20260506210031 | 21 | 204 | 9.7 | 16.1 | 0.00 | 0.00 | 0.00 | 63 | 1017.1 |
| 20260506204524 | 21 | 190 | 1.6 | 14.5 | 0.00 | 0.00 | 0.00 | 65 | 1017.2 |
| 20260506203026 | 20 | 175 | 6.4 | 22.5 | 0.00 | 0.00 | 0.00 | 66 | 1017.3 |
| 20260506201528 | 20 | 169 | 9.7 | 19.3 | 0.00 | 0.00 | 0.00 | 65 | 1017.7 |
| 20260506200017 | 20 | 179 | 11.3 | 19.3 | 0.00 | 0.00 | 0.00 | 66 | 1017.5 |
| 20260506194530 | 20 | 134 | 12.9 | 24.1 | 0.00 | 0.00 | 0.00 | 66 | 1017.6 |
| 20260506193031 | 20 | 141 | 12.9 | 24.1 | 0.00 | 0.00 | 0.00 | 66 | 1017.6 |
| 20260506191516 | 20 | 160 | 11.3 | 20.9 | 0.00 | 0.00 | 0.00 | 66 | 1017.8 |
| 20260506190019 | 20 | 150 | 12.9 | 19.3 | 0.00 | 0.00 | 0.00 | 65 | 1017.9 |
| 20260506184623 | 20 | 146 | 11.3 | 20.9 | 0.00 | 0.00 | 0.00 | 62 | 1018.0 |
| 20260506183017 | 20 | 94 | 11.3 | 19.3 | 0.00 | 0.00 | 0.00 | 60 | 1018.0 |
| 20260506181520 | 19 | 139 | 14.5 | 22.5 | 0.00 | 0.00 | 0.00 | 61 | 1018.2 |
| 20260506180031 | 19 | 141 | 4.8 | 16.1 | 0.00 | 0.00 | 0.00 | 61 | 1018.3 |
| 20260506174533 | 18 | 86 | 1.6 | 16.1 | 0.00 | 0.00 | 0.00 | 62 | 1018.2 |
| 20260506173019 | 18 | 101 | 3.2 | 16.1 | 0.00 | 0.00 | 0.00 | 62 | 1018.3 |
| 20260506171523 | 18 | 118 | 4.8 | 11.3 | 0.00 | 0.00 | 0.00 | 62 | 1018.2 |
| 20260506170028 | 17 | 91 | 0.0 | 11.3 | 0.00 | 0.00 | 0.00 | 64 | 1018.2 |
| 20260506164515 | 17 | 127 | 3.2 | 11.3 | 0.00 | 0.00 | 0.00 | 65 | 1018.2 |
| 20260506163023 | 16 | 108 | 4.8 | 12.9 | 0.00 | 0.00 | 0.00 | 66 | 1018.4 |
| 20260506161530 | 16 | 147 | 3.2 | 8.0 | 0.00 | 0.00 | 0.00 | 69 | 1018.5 |
| 20260506160018 | 15 | 102 | 3.2 | 6.4 | 0.00 | 0.00 | 0.00 | 71 | 1018.3 |
| 20260506154504 | 14 | 99 | 3.2 | 6.4 | 0.00 | 0.00 | 0.00 | 75 | 1018.3 |
| 20260506153029 | 13 | 85 | 3.2 | 6.4 | 0.00 | 0.00 | 0.00 | 79 | 1018.4 |
| 20260506151520 | 12 | 77 | 1.6 | 4.8 | 0.00 | 0.00 | 0.00 | 82 | 1018.4 |
| 20260506150004 | 11 | 75 | 1.6 | 4.8 | 0.00 | 0.00 | 0.00 | 86 | 1018.2 |
| 20260506144536 | 11 | 50 | 1.6 | 3.2 | 0.00 | 0.00 | 0.00 | 91 | 1018.1 |
| 20260506143023 | 10 | 324 | 0.0 | 3.2 | 0.00 | 0.00 | 0.00 | 93 | 1018.0 |
| 20260506141527 | 8 | 322 | 1.6 | 4.8 | 0.00 | 0.00 | 0.00 | 92 | 1017.9 |
| 20260506140117 | 8 | 324 | 1.6 | 4.8 | 0.00 | 0.00 | 0.00 | 92 | 1017.8 |
| 20260506134515 | 8 | 325 | 0.0 | 4.8 | 0.00 | 0.00 | 0.00 | 92 | 1017.7 |
| 20260506133022 | 8 | 326 | 0.0 | 3.2 | 0.00 | 0.00 | 0.00 | 92 | 1017.7 |
| 20260506131541 | 8 | 326 | 0.0 | 3.2 | 0.00 | 0.00 | 0.00 | 92 | 1017.6 |
| 20260506130036 | 8 | 327 | 0.0 | 1.6 | 0.00 | 0.00 | 0.00 | 92 | 1017.5 |
| 20260506124517 | 8 | 324 | 3.2 | 4.8 | 0.00 | 0.00 | 0.00 | 92 | 1017.5 |
| 20260506123037 | 8 | 316 | 1.6 | 4.8 | 0.00 | 0.00 | 0.00 | 92 | 1017.4 |
| 20260506121513 | 8 | 314 | 0.0 | 4.8 | 0.00 | 0.00 | 0.00 | 92 | 1017.3 |
| 20260506120024 | 8 | 314 | 0.0 | 3.2 | 0.00 | 0.00 | 0.00 | 92 | 1017.2 |
| 20260506114525 | 8 | 314 | 1.6 | 3.2 | 0.00 | 0.00 | 0.00 | 92 | 1017.2 |
| 20260506113034 | 8 | 314 | 1.6 | 4.8 | 0.00 | 0.00 | 0.00 | 92 | 1017.2 |
| 20260506111534 | 8 | 314 | 0.0 | 0.0 | 0.00 | 0.00 | 0.00 | 92 | 1017.0 |
| 20260506110020 | 8 | 314 | 1.6 | 3.2 | 0.00 | 0.00 | 0.00 | 92 | 1017.1 |
| 20260506104530 | 8 | 314 | 3.2 | 4.8 | 0.00 | 0.00 | 0.00 | 92 | 1017.1 |
| 20260506103032 | 8 | 314 | 3.2 | 4.8 | 0.00 | 0.00 | 0.00 | 92 | 1017.0 |
| 20260506101526 | 8 | 314 | 3.2 | 6.4 | 0.00 | 0.00 | 0.00 | 92 | 1017.0 |
| 20260506100027 | 8 | 316 | 1.6 | 4.8 | 0.00 | 0.00 | 0.00 | 92 | 1017.0 |
| 20260506094534 | 8 | 318 | 3.2 | 6.4 | 0.00 | 0.00 | 0.00 | 92 | 1017.2 |
| 20260506093031 | 8 | 318 | 1.6 | 6.4 | 0.00 | 0.00 | 0.00 | 92 | 1017.2 |
| 20260506091530 | 8 | 320 | 1.6 | 6.4 | 0.00 | 0.00 | 0.00 | 92 | 1017.4 |
| 20260506090015 | 9 | 324 | 3.2 | 6.4 | 0.00 | 0.00 | 0.00 | 92 | 1017.6 |
| 20260506084523 | 9 | 4 | 3.2 | 6.4 | 0.00 | 0.00 | 0.00 | 92 | 1017.3 |
| 20260506083031 | 9 | 4 | 1.6 | 6.4 | 0.00 | 0.00 | 0.00 | 92 | 1017.6 |
| 20260506081529 | 9 | 22 | 1.6 | 4.8 | 0.00 | 0.00 | 0.00 | 91 | 1017.5 |
| 20260506073032 | 9 | 4 | 0.0 | 3.2 | 0.00 | 0.00 | 0.00 | 91 | 1017.4 |
| 20260506071522 | 10 | 4 | 0.0 | 4.8 | 0.00 | 0.00 | 0.00 | 91 | 1017.3 |
| 20260506061528 | 10 | 9 | 3.2 | 6.4 | 0.00 | 0.00 | 0.00 | 90 | 1016.7 |
| 20260506044531 | 11 | 109 | 0.0 | 3.2 | 0.00 | 0.00 | 0.00 | 88 | 1016.0 |
| 20260506043026 | 11 | 109 | 0.0 | 4.8 | 0.00 | 0.00 | 0.00 | 88 | 1015.8 |
| 20260506041517 | 11 | 109 | 0.0 | 4.8 | 0.00 | 0.00 | 0.00 | 88 | 1015.7 |